When you browse on this site, cookies collect data to enhance your experience and personalize the content and advertising you see.
Visit our Privacy Policy to learn more. By continuing to use the site, you agree to this use of cookies and data.
EN

Hourly Weather Blansko

Today, 9 July, Thursday

Time Temperature Precipitation Wind Pressure Humidity
00:00 +14°C° 0.3 mm 1 mps 734 mmHg 97%
01:00 +14°C° 0 mm 1 mps 734 mmHg 97%
02:00 +13°C° 0.3 mm 0 mps 734 mmHg 97%
03:00 +13°C° 0.3 mm 0 mps 734 mmHg 97%
04:00 +12°C° 0.3 mm 0 mps 733 mmHg 98%
05:00 +13°C° 0.1 mm 0 mps 733 mmHg 97%
06:00 +13°C° 0.1 mm 0 mps 733 mmHg 97%
07:00 +13°C° 0 mm 0 mps 734 mmHg 96%
08:00 +15°C° 0 mm 1 mps 734 mmHg 95%
09:00 +15°C° 0 mm 1 mps 734 mmHg 94%
10:00 +16°C° 0 mm 2 mps 734 mmHg 93%
11:00 +17°C° 0 mm 2 mps 734 mmHg 91%
12:00 +18°C° 0 mm 2 mps 734 mmHg 89%
13:00 +20°C° 0 mm 2 mps 734 mmHg 88%
14:00 +20°C° 0.1 mm 2 mps 733 mmHg 87%
15:00 +20°C° 0.1 mm 3 mps 733 mmHg 87%
16:00 +21°C° 0.1 mm 3 mps 733 mmHg 86%
17:00 +21°C° 0.1 mm 3 mps 732 mmHg 87%
18:00 +20°C° 0.1 mm 2 mps 732 mmHg 89%
19:00 +20°C° 0.1 mm 2 mps 732 mmHg 90%
20:00 +19°C° 0.2 mm 2 mps 732 mmHg 92%
21:00 +19°C° 0.2 mm 1 mps 732 mmHg 93%
22:00 +18°C° 0.2 mm 1 mps 732 mmHg 95%
23:00 +18°C° 0.2 mm 1 mps 732 mmHg 95%

Tomorrow, 10 July, Friday

Time Temperature Precipitation Wind Pressure Humidity
00:00 +18°C° 0.2 mm 1 mps 732 mmHg 95%
01:00 +16°C° 0.2 mm 1 mps 732 mmHg 95%
02:00 +16°C° 0 mm 1 mps 732 mmHg 95%
03:00 +16°C° 0 mm 1 mps 731 mmHg 95%
04:00 +16°C° 0 mm 1 mps 731 mmHg 95%
05:00 +18°C° 0 mm 1 mps 731 mmHg 93%
06:00 +18°C° 0 mm 2 mps 731 mmHg 90%
07:00 +20°C° 0 mm 2 mps 731 mmHg 88%
08:00 +21°C° 0 mm 3 mps 731 mmHg 82%
09:00 +24°C° 0 mm 3 mps 731 mmHg 76%
10:00 +26°C° 0 mm 4 mps 731 mmHg 70%
11:00 +27°C° 0.1 mm 5 mps 731 mmHg 67%
12:00 +28°C° 0.1 mm 5 mps 731 mmHg 63%
13:00 +29°C° 0.1 mm 5 mps 730 mmHg 60%
14:00 +29°C° 0.2 mm 5 mps 730 mmHg 61%
15:00 +29°C° 0.2 mm 5 mps 730 mmHg 61%
16:00 +29°C° 0.2 mm 4 mps 730 mmHg 61%
17:00 +28°C° 0.2 mm 4 mps 729 mmHg 66%
18:00 +27°C° 0.2 mm 3 mps 729 mmHg 71%
19:00 +25°C° 0.2 mm 3 mps 729 mmHg 76%
20:00 +24°C° 0.3 mm 3 mps 729 mmHg 80%
21:00 +22°C° 0.3 mm 3 mps 730 mmHg 83%
22:00 +20°C° 0.3 mm 3 mps 730 mmHg 87%
23:00 +20°C° 0.3 mm 3 mps 731 mmHg 89%

Day after tomorrow, 11 July, Saturday

Time Temperature Precipitation Wind Pressure Humidity
00:00 +19°C° 0.3 mm 3 mps 731 mmHg 92%
01:00 +18°C° 0.3 mm 2 mps 732 mmHg 95%
02:00 +18°C° 0.6 mm 2 mps 732 mmHg 95%
03:00 +18°C° 0.6 mm 2 mps 732 mmHg 95%
04:00 +17°C° 0.6 mm 2 mps 732 mmHg 95%
05:00 +17°C° 0.5 mm 2 mps 733 mmHg 95%
06:00 +17°C° 0.5 mm 2 mps 733 mmHg 95%
07:00 +16°C° 0.5 mm 3 mps 733 mmHg 94%
08:00 +16°C° 0.3 mm 3 mps 733 mmHg 94%
09:00 +14°C° 0.3 mm 3 mps 734 mmHg 94%
10:00 +14°C° 0.3 mm 4 mps 734 mmHg 93%
11:00 +13°C° 1 mm 3 mps 734 mmHg 93%
12:00 +13°C° 1 mm 3 mps 735 mmHg 93%
13:00 +13°C° 1 mm 3 mps 735 mmHg 94%
14:00 +13°C° 1.1 mm 3 mps 735 mmHg 93%
15:00 +12°C° 1.1 mm 3 mps 735 mmHg 93%
16:00 +12°C° 1.1 mm 3 mps 736 mmHg 92%
17:00 +12°C° 0 mm 3 mps 736 mmHg 92%
18:00 +13°C° 0 mm 2 mps 736 mmHg 91%
19:00 +13°C° 0 mm 1 mps 736 mmHg 91%
20:00 +12°C° 0 mm 1 mps 736 mmHg 92%
21:00 +12°C° 0 mm 1 mps 736 mmHg 93%
22:00 +12°C° 0 mm 1 mps 736 mmHg 93%
23:00 +11°C° 0 mm 1 mps 736 mmHg 93%

12 July, Sunday

Time Temperature Precipitation Wind Pressure Humidity
00:00 +10°C° 0 mm 2 mps 737 mmHg 93%
01:00 +10°C° 0 mm 2 mps 737 mmHg 93%
02:00 +10°C° 0 mm 2 mps 737 mmHg 93%
03:00 +9°C° 0 mm 2 mps 737 mmHg 92%
04:00 +9°C° 0 mm 2 mps 737 mmHg 92%
05:00 +10°C° 0 mm 2 mps 737 mmHg 88%
06:00 +12°C° 0 mm 3 mps 737 mmHg 83%
07:00 +13°C° 0 mm 3 mps 737 mmHg 79%
08:00 +16°C° 0 mm 3 mps 738 mmHg 72%
09:00 +17°C° 0 mm 3 mps 738 mmHg 65%
10:00 +19°C° 0 mm 4 mps 738 mmHg 59%
11:00 +19°C° 0.2 mm 3 mps 738 mmHg 58%
12:00 +20°C° 0.2 mm 3 mps 738 mmHg 58%
13:00 +20°C° 0.2 mm 3 mps 738 mmHg 58%
14:00 +20°C° 0.2 mm 3 mps 738 mmHg 59%
15:00 +20°C° 0.2 mm 3 mps 738 mmHg 60%
16:00 +20°C° 0.2 mm 3 mps 738 mmHg 61%
17:00 +19°C° 0.1 mm 3 mps 738 mmHg 67%
18:00 +17°C° 0.1 mm 2 mps 738 mmHg 73%
19:00 +16°C° 0.1 mm 2 mps 738 mmHg 78%
20:00 +15°C° 0 mm 2 mps 738 mmHg 81%
21:00 +13°C° 0 mm 2 mps 738 mmHg 84%
22:00 +12°C° 0 mm 2 mps 738 mmHg 87%
23:00 +12°C° 0 mm 1 mps 738 mmHg 87%

13 July, Monday

Time Temperature Precipitation Wind Pressure Humidity
00:00 +11°C° 0 mm 1 mps 738 mmHg 87%
01:00 +11°C° 0 mm 1 mps 738 mmHg 87%
02:00 +11°C° 0 mm 1 mps 738 mmHg 88%
03:00 +10°C° 0 mm 1 mps 738 mmHg 89%
04:00 +10°C° 0 mm 1 mps 738 mmHg 89%
05:00 +12°C° 0 mm 1 mps 738 mmHg 84%
06:00 +13°C° 0 mm 1 mps 738 mmHg 78%
07:00 +15°C° 0 mm 1 mps 738 mmHg 73%
08:00 +18°C° 0 mm 1 mps 738 mmHg 67%
09:00 +18°C° 0 mm 2 mps 738 mmHg 60%
10:00 +19°C° 0 mm 2 mps 738 mmHg 54%
11:00 +19°C° 0 mm 2 mps 738 mmHg 55%
12:00 +20°C° 0 mm 2 mps 737 mmHg 55%
13:00 +20°C° 0 mm 2 mps 737 mmHg 56%
14:00 +20°C° 0 mm 2 mps 737 mmHg 57%
15:00 +20°C° 0 mm 2 mps 737 mmHg 59%
16:00 +20°C° 0 mm 2 mps 736 mmHg 60%
17:00 +19°C° 0 mm 2 mps 736 mmHg 66%
18:00 +18°C° 0 mm 2 mps 736 mmHg 72%
19:00 +18°C° 0 mm 1 mps 736 mmHg 78%
20:00 +15°C° 0 mm 1 mps 736 mmHg 82%
21:00 +14°C° 0 mm 1 mps 736 mmHg 86%
22:00 +13°C° 0 mm 1 mps 736 mmHg 89%
23:00 +12°C° 0 mm 1 mps 736 mmHg 90%

14 July, Tuesday

Time Temperature Precipitation Wind Pressure Humidity
00:00 +12°C° 0 mm 1 mps 735 mmHg 91%
01:00 +12°C° 0 mm 1 mps 735 mmHg 91%
02:00 +11°C° 0 mm 1 mps 735 mmHg 91%
03:00 +11°C° 0 mm 1 mps 735 mmHg 92%
04:00 +11°C° 0 mm 1 mps 735 mmHg 92%
05:00 +13°C° 0 mm 1 mps 735 mmHg 87%
06:00 +14°C° 0 mm 1 mps 735 mmHg 81%
07:00 +16°C° 0 mm 1 mps 735 mmHg 76%
08:00 +19°C° 0 mm 1 mps 735 mmHg 70%
09:00 +20°C° 0 mm 1 mps 735 mmHg 64%
10:00 +22°C° 0 mm 1 mps 735 mmHg 58%
11:00 +22°C° 0 mm 1 mps 734 mmHg 57%
12:00 +23°C° 0 mm 1 mps 734 mmHg 56%
13:00 +23°C° 0 mm 1 mps 734 mmHg 55%
14:00 +23°C° 0.1 mm 1 mps 734 mmHg 55%
15:00 +23°C° 0.1 mm 1 mps 733 mmHg 55%
16:00 +21°C° 0.1 mm 0 mps 733 mmHg 56%
17:00 +20°C° 0 mm 0 mps 733 mmHg 62%
18:00 +19°C° 0 mm 0 mps 733 mmHg 68%
19:00 +17°C° 0 mm 0 mps 732 mmHg 75%
20:00 +16°C° 0 mm 0 mps 732 mmHg 78%
21:00 +15°C° 0 mm 0 mps 733 mmHg 82%
22:00 +14°C° 0 mm 0 mps 733 mmHg 85%
23:00 +13°C° 0 mm 0 mps 732 mmHg 86%
Show more